GW0058 Weather Reports


Display with metric or nautical units.
time (UTC)temp
F
wind
direction
speed
MPH
gust
MPH
rain 1hr
in
rain 24hr
in
rain mn
in
humidity
%
barometer
mb
20260507214549 67 299 2.0 8.0 0.00 0.00 0.00 61 1016.8
20260507214045 67 28 1.0 8.0 0.00 0.00 0.00 62 1016.6
20260507213548 67 37 1.0 8.0 0.00 0.00 0.00 61 1016.5
20260507213058 67 47 1.0 7.0 0.00 0.00 0.00 62 1016.5
20260507212545 66 33 1.0 7.0 0.00 0.00 0.00 62 1016.7
20260507212045 66 26 1.0 9.0 0.00 0.00 0.00 63 1016.9
20260507211554 65 350 3.0 9.0 0.00 0.00 0.00 63 1017.1
20260507211046 66 42 4.0 9.0 0.00 0.00 0.00 63 1017.1
20260507210546 67 35 1.0 6.0 0.00 0.00 0.00 66 1016.7
20260507210052 67 17 2.0 7.0 0.00 0.00 0.00 65 1016.4
20260507205546 67 350 2.0 7.0 0.00 0.00 0.00 64 1016.6
20260507205048 67 0 1.0 9.0 0.00 0.00 0.00 64 1016.8
20260507204555 67 23 2.0 9.0 0.00 0.00 0.00 62 1016.9
20260507204047 68 70 2.0 9.0 0.00 0.00 0.00 63 1016.8
20260507203547 68 355 3.0 10.0 0.00 0.00 0.00 62 1016.3
20260507203101 68 90 3.0 10.0 0.00 0.00 0.00 63 1016.0
20260507202550 68 5 2.0 8.0 0.00 0.00 0.00 64 1016.0
20260507202048 68 55 2.0 9.0 0.00 0.00 0.00 64 1016.1
20260507201559 67 0 2.0 9.0 0.00 0.00 0.00 65 1016.3
20260507201048 67 235 3.0 8.0 0.00 0.00 0.00 65 1016.7
20260507200604 67 340 2.0 8.0 0.00 0.00 0.00 66 1017.0
20260507200054 67 355 1.0 6.0 0.00 0.00 0.00 65 1017.1
20260507195550 66 329 1.0 11.0 0.00 0.00 0.00 67 1017.0
20260507195054 66 117 2.0 11.0 0.00 0.00 0.00 67 1017.3
20260507194612 66 300 2.0 8.0 0.00 0.00 0.00 67 1017.3
20260507194050 67 79 2.0 10.0 0.00 0.00 0.00 66 1017.2
20260507193550 68 16 2.0 10.0 0.00 0.00 0.00 65 1017.3
20260507193055 68 311 2.0 10.0 0.00 0.00 0.00 67 1016.8
20260507192547 67 343 2.0 13.0 0.00 0.00 0.00 66 1017.3
20260507192047 67 51 1.0 13.0 0.00 0.00 0.00 67 1017.2
20260507191556 68 17 3.0 13.0 0.00 0.00 0.00 67 1017.5
20260507191048 68 5 2.0 9.0 0.00 0.00 0.00 70 1017.2
20260507190548 67 24 3.0 9.0 0.00 0.00 0.00 69 1016.8
20260507190058 66 230 2.0 9.0 0.00 0.00 0.00 71 1017.1
20260507185547 64 137 2.0 7.0 0.00 0.00 0.00 73 1017.2
20260507185047 64 98 2.0 8.0 0.00 0.00 0.00 74 1017.5
20260507184555 64 260 2.0 8.0 0.00 0.00 0.00 75 1017.7
20260507184048 63 304 2.0 7.0 0.00 0.00 0.00 74 1018.2
20260507183546 63 0 1.0 5.0 0.00 0.00 0.00 76 1018.5
20260507183101 63 314 2.0 5.0 0.00 0.00 0.00 75 1018.6
20260507182546 64 37 1.0 5.0 0.00 0.00 0.00 75 1018.3
20260507182046 64 66 1.0 9.0 0.00 0.00 0.00 75 1018.3
20260507181556 64 88 1.0 9.0 0.00 0.00 0.00 75 1018.6
20260507181047 64 11 1.0 6.0 0.00 0.00 0.00 74 1018.8
20260507180547 64 24 1.0 6.0 0.00 0.00 0.00 75 1018.7
20260507180057 64 360 2.0 12.0 0.00 0.00 0.00 76 1018.6
20260507175545 63 335 3.0 12.0 0.00 0.00 0.00 78 1018.4
20260507175047 63 11 1.0 8.0 0.00 0.00 0.00 77 1018.4
20260507174546 63 65 1.0 8.0 0.00 0.00 0.00 79 1018.2
20260507174046 63 302 1.0 10.0 0.00 0.00 0.00 78 1018.3
20260507173546 63 298 1.0 10.0 0.00 0.00 0.00 78 1018.5
20260507173059 63 355 2.0 10.0 0.00 0.00 0.00 79 1018.6
20260507172550 63 252 3.0 7.0 0.00 0.00 0.00 78 1018.5
20260507172046 63 200 1.0 4.0 0.00 0.00 0.00 80 1018.3
20260507171555 62 68 0.0 8.0 0.00 0.00 0.00 82 1018.0
20260507171046 61 63 2.0 8.0 0.00 0.00 0.00 82 1018.1
20260507170546 61 63 1.0 9.0 0.00 0.00 0.00 84 1018.3
20260507170055 60 304 2.0 9.0 0.00 0.00 0.00 84 1018.2
20260507165545 59 77 2.0 5.0 0.00 0.00 0.00 85 1017.8
20260507165045 59 32 1.0 6.0 0.00 0.00 0.00 85 1018.6
20260507164553 59 347 1.0 6.0 0.00 0.00 0.00 86 1018.8
20260507164046 58 331 1.0 7.0 0.00 0.00 0.00 86 1018.8
20260507163552 58 0 1.0 9.0 0.00 0.00 0.00 86 1019.0
20260507163058 58 269 2.0 9.0 0.00 0.00 0.00 87 1018.8
20260507162547 58 101 1.0 8.0 0.00 0.00 0.00 87 1018.8
20260507162047 58 0 1.0 8.0 0.00 0.00 0.00 87 1019.0
20260507161559 58 272 1.0 8.0 0.00 0.00 0.00 87 1019.2
20260507161046 58 355 1.0 9.0 0.00 0.00 0.00 87 1019.2
20260507160546 58 62 2.0 10.0 0.00 0.00 0.00 87 1019.0
20260507160053 58 271 3.0 10.0 0.00 0.00 0.00 87 1019.0
20260507155545 58 32 3.0 10.0 0.00 0.00 0.00 87 1018.7
20260507155047 58 314 3.0 9.0 0.00 0.00 0.00 87 1019.0
20260507154556 58 300 2.0 11.0 0.00 0.00 0.00 87 1018.4
20260507154047 58 336 3.0 11.0 0.00 0.00 0.00 88 1018.4
20260507153546 58 320 2.0 9.0 0.00 0.00 0.00 88 1018.8
20260507153103 58 284 2.0 9.0 0.00 0.00 0.00 89 1018.8
20260507152548 57 307 3.0 9.0 0.00 0.00 0.00 89 1018.7
20260507152046 57 247 2.0 10.0 0.00 0.00 0.00 90 1018.7
20260507151553 57 257 2.0 10.0 0.00 0.00 0.00 91 1018.8
20260507151049 57 360 3.0 10.0 0.00 0.00 0.00 91 1018.8
20260507150548 56 336 2.0 9.0 0.00 0.00 0.00 92 1018.7
20260507150058 56 318 3.0 8.0 0.00 0.00 0.00 92 1018.8
20260507145547 56 355 2.0 15.0 0.00 0.00 0.00 92 1018.7
20260507145048 56 329 4.0 15.0 0.00 0.00 0.00 92 1018.9
20260507144556 56 335 2.0 10.0 0.00 0.00 0.00 92 1018.8
20260507144048 56 42 3.0 10.0 0.00 0.00 0.00 92 1018.8
20260507143546 56 305 2.0 8.0 0.00 0.00 0.00 92 1019.0
20260507143107 56 346 2.0 10.0 0.00 0.00 0.00 92 1019.2
20260507142556 56 355 3.0 12.0 0.00 0.00 0.00 92 1019.1
20260507142049 56 331 3.0 12.0 0.00 0.00 0.00 91 1019.0
20260507141551 56 79 4.0 12.0 0.00 0.00 0.00 91 1019.1
20260507141048 56 318 3.0 10.0 0.00 0.00 0.00 90 1019.3
20260507140548 56 325 3.0 10.0 0.00 0.00 0.00 90 1019.5
20260507135548 56 18 3.0 9.0 0.00 0.00 0.00 89 1019.4
20260507135046 57 360 2.0 11.0 0.00 0.00 0.00 89 1019.5
20260507134551 57 258 3.0 11.0 0.00 0.00 0.00 88 1019.1
20260507134047 57 312 3.0 9.0 0.00 0.00 0.00 88 1018.4
20260507133548 57 321 3.0 12.0 0.00 0.00 0.00 87 1018.3
20260507133054 57 271 3.0 12.0 0.00 0.00 0.00 87 1018.7
20260507132548 57 324 3.0 8.0 0.00 0.00 0.00 87 1018.8
20260507132048 57 65 1.0 10.0 0.00 0.00 0.00 87 1018.6
20260507131554 57 312 2.0 10.0 0.00 0.00 0.00 87 1018.6
20260507131048 57 344 3.0 10.0 0.00 0.00 0.00 87 1018.4
20260507130546 57 304 2.0 10.0 0.00 0.00 0.00 87 1018.3
20260507130104 57 285 3.0 10.0 0.00 0.00 0.00 87 1018.4
20260507125547 57 333 2.0 10.0 0.00 0.00 0.00 87 1018.2
20260507125046 57 311 3.0 12.0 0.00 0.00 0.00 87 1018.0
20260507124557 57 330 4.0 12.0 0.00 0.00 0.00 87 1017.9
20260507124048 57 270 4.0 10.0 0.00 0.00 0.00 88 1017.9
20260507123546 57 352 3.0 10.0 0.00 0.00 0.00 88 1017.8
20260507123056 57 269 2.0 9.0 0.00 0.00 0.00 88 1017.9
20260507122547 57 271 3.0 9.0 0.00 0.00 0.00 88 1017.8
20260507122048 57 355 3.0 8.0 0.00 0.00 0.00 88 1017.7
20260507121556 57 343 2.0 10.0 0.00 0.00 0.00 88 1017.8
20260507121045 57 9 3.0 10.0 0.00 0.00 0.00 88 1017.7
20260507120545 57 286 3.0 10.0 0.00 0.00 0.00 88 1017.5
20260507120056 57 321 3.0 10.0 0.00 0.00 0.00 88 1017.4
20260507115548 57 355 3.0 10.0 0.00 0.00 0.00 88 1017.2
20260507115046 57 11 3.0 11.0 0.00 0.00 0.00 88 1017.4
20260507114553 57 294 4.0 11.0 0.00 0.00 0.00 88 1017.4
20260507114048 57 327 5.0 11.0 0.00 0.00 0.00 88 1017.1
20260507113549 58 327 3.0 11.0 0.00 0.00 0.00 88 1017.1
20260507113053 58 333 4.0 11.0 0.00 0.00 0.00 88 1017.2
20260507112549 58 5 2.0 9.0 0.00 0.00 0.00 88 1017.0
20260507112049 58 215 2.0 11.0 0.00 0.00 0.00 88 1016.8
20260507111550 58 355 3.0 11.0 0.00 0.00 0.00 87 1016.8
20260507111047 58 290 3.0 11.0 0.00 0.00 0.00 87 1016.7
20260507110547 58 233 2.0 11.0 0.00 0.00 0.00 87 1016.8
20260507110059 58 360 3.0 11.0 0.00 0.00 0.00 87 1017.0
20260507105547 58 5 4.0 11.0 0.00 0.00 0.00 87 1016.9
20260507105047 58 323 2.0 11.0 0.00 0.00 0.00 86 1017.0
20260507104602 58 327 4.0 11.0 0.00 0.00 0.00 86 1016.9
20260507104050 58 299 2.0 8.0 0.00 0.00 0.00 86 1016.9
20260507103548 58 360 2.0 11.0 0.00 0.00 0.00 86 1016.8
20260507103120 58 317 3.0 11.0 0.00 0.00 0.00 86 1016.8
20260507102547 58 288 2.0 8.0 0.00 0.00 0.00 86 1016.8
20260507102047 58 281 2.0 8.0 0.00 0.00 0.00 86 1016.8
20260507101550 59 346 1.0 6.0 0.00 0.00 0.00 85 1016.8
20260507101047 59 273 2.0 8.0 0.00 0.00 0.00 85 1016.7
20260507100549 59 18 3.0 8.0 0.00 0.00 0.00 85 1016.6
20260507100103 59 351 0.0 8.0 0.00 0.00 0.00 85 1016.3
20260507095547 59 0 2.0 8.0 0.00 0.00 0.00 85 1016.5
20260507095047 59 312 3.0 8.0 0.00 0.00 0.00 85 1016.2
20260507094549 59 343 2.0 6.0 0.00 0.00 0.00 85 1016.3
20260507094048 59 360 1.0 8.0 0.00 0.00 0.00 85 1016.1
20260507093545 59 57 3.0 8.0 0.00 0.00 0.00 85 1016.4
20260507093055 59 306 1.0 9.0 0.00 0.00 0.00 85 1016.1
20260507092547 59 293 2.0 9.0 0.00 0.00 0.00 84 1016.3
20260507092046 59 288 2.0 5.0 0.00 0.00 0.00 84 1016.5
20260507091552 59 296 2.0 6.0 0.00 0.00 0.00 85 1016.3
20260507091048 59 329 1.0 6.0 0.00 0.00 0.00 84 1016.3
20260507090548 59 311 1.0 4.0 0.00 0.00 0.00 84 1016.3
20260507090056 59 0 1.0 8.0 0.00 0.00 0.00 84 1016.3
20260507085548 59 334 1.0 8.0 0.00 0.00 0.00 84 1016.3
20260507085046 59 321 1.0 5.0 0.00 0.00 0.00 84 1016.2
20260507084603 59 87 1.0 5.0 0.00 0.00 0.00 84 1015.9
20260507084045 59 312 2.0 5.0 0.00 0.00 0.00 84 1016.2
20260507083547 59 0 1.0 4.0 0.00 0.00 0.00 84 1016.3
20260507083051 60 0 1.0 3.0 0.00 0.00 0.00 84 1016.3
20260507082546 60 0 0.0 3.0 0.00 0.00 0.00 85 1016.3
20260507082045 59 0 1.0 3.0 0.00 0.00 0.00 85 1016.1
20260507081550 59 212 0.0 3.0 0.00 0.00 0.00 85 1016.0
20260507081050 59 352 0.0 3.0 0.00 0.00 0.00 85 1016.1
20260507080552 59 360 0.0 3.0 0.00 0.00 0.00 85 1016.3
20260507080055 59 302 0.0 3.0 0.00 0.00 0.00 85 1016.3
20260507075547 59 0 0.0 4.0 0.00 0.00 0.00 85 1016.3
20260507075050 59 31 0.0 4.0 0.00 0.00 0.00 85 1016.2
20260507074551 59 0 0.0 4.0 0.00 0.00 0.00 85 1016.1
20260507074049 59 0 0.0 4.0 0.00 0.00 0.00 85 1015.8
20260507073547 59 0 0.0 3.0 0.00 0.00 0.00 85 1015.9
20260507073049 59 0 0.0 2.0 0.00 0.00 0.00 85 1016.1
20260507072548 59 0 0.0 3.0 0.00 0.00 0.00 85 1016.1
20260507072050 59 0 0.0 3.0 0.00 0.00 0.00 85 1015.8
20260507071549 59 244 0.0 3.0 0.00 0.00 0.00 85 1016.0
20260507071047 59 0 0.0 4.0 0.00 0.00 0.00 85 1015.8
20260507070547 59 63 1.0 4.0 0.00 0.00 0.00 85 1015.8
20260507065551 60 0 0.0 4.0 0.00 0.00 0.00 85 1016.0
20260507065054 60 54 0.0 3.0 0.00 0.00 0.00 86 1015.8
20260507064557 59 0 0.0 3.0 0.00 0.00 0.00 85 1016.0
20260507064053 59 0 0.0 3.0 0.00 0.00 0.00 85 1015.9
20260507063546 59 0 0.0 4.0 0.00 0.00 0.00 85 1016.0
20260507063051 60 0 0.0 4.0 0.00 0.00 0.00 85 1016.1
20260507062550 60 15 1.0 4.0 0.00 0.00 0.00 85 1016.1
20260507062048 60 279 1.0 8.0 0.00 0.00 0.00 85 1016.1
20260507061551 60 297 1.0 8.0 0.00 0.00 0.00 85 1016.0
20260507061048 60 343 0.0 5.0 0.00 0.00 0.00 85 1015.8
20260507060547 60 334 1.0 5.0 0.00 0.00 0.00 85 1015.7
20260507060053 60 293 1.0 5.0 0.00 0.00 0.00 85 1015.4
20260507055549 60 69 0.0 5.0 0.00 0.00 0.00 85 1015.1
20260507055051 60 35 1.0 5.0 0.00 0.00 0.00 85 1015.5
20260507054611 60 343 1.0 5.0 0.00 0.00 0.00 85 1015.7
20260507054051 60 30 1.0 7.0 0.00 0.00 0.00 85 1015.8
20260507053554 60 0 1.0 7.0 0.00 0.00 0.00 85 1015.7
20260507053104 60 299 2.0 7.0 0.00 0.00 0.00 85 1015.4
20260507052548 60 315 1.0 5.0 0.00 0.00 0.00 84 1015.5
20260507052104 60 299 1.0 6.0 0.00 0.00 0.00 84 1015.8
20260507051602 60 317 1.0 8.0 0.00 0.00 0.00 84 1015.9
20260507051046 60 230 2.0 8.0 0.00 0.00 0.00 84 1015.8
20260507050545 60 44 2.0 8.0 0.00 0.00 0.00 84 1015.7
20260507050100 60 0 1.0 6.0 0.00 0.00 0.00 85 1015.7
20260507045546 60 59 0.0 4.0 0.00 0.00 0.00 85 1015.6
20260507045046 61 40 1.0 9.0 0.00 0.00 0.00 84 1015.5
20260507044557 61 32 1.0 9.0 0.00 0.00 0.00 84 1015.4
20260507044045 61 92 1.0 9.0 0.00 0.00 0.00 84 1015.6
20260507043547 61 157 1.0 4.0 0.00 0.00 0.00 84 1015.4
20260507043107 61 39 1.0 8.0 0.00 0.00 0.00 84 1015.4
20260507042545 61 291 2.0 10.0 0.00 0.00 0.00 84 1015.5
20260507042046 61 277 1.0 11.0 0.00 0.00 0.00 84 1015.6
20260507041604 61 11 3.0 11.0 0.00 0.00 0.00 84 1015.4
20260507041050 61 73 2.0 9.0 0.00 0.00 0.00 84 1015.3
20260507040547 61 36 2.0 7.0 0.00 0.00 0.00 84 1015.2
20260507040056 61 344 1.0 10.0 0.00 0.00 0.00 84 1015.3
20260507035546 61 173 3.0 10.0 0.00 0.00 0.00 84 1015.1
20260507035046 61 355 3.0 10.0 0.00 0.00 0.00 84 1015.0
20260507034608 61 31 2.0 8.0 0.00 0.00 0.00 84 1015.1
20260507034045 61 28 3.0 8.0 0.00 0.00 0.00 84 1015.0
20260507033547 61 355 2.0 8.0 0.00 0.00 0.00 84 1015.2
20260507033055 61 283 3.0 8.0 0.00 0.00 0.00 84 1015.3
20260507032550 61 334 3.0 8.0 0.00 0.00 0.00 84 1015.1
20260507032045 61 304 2.0 9.0 0.00 0.00 0.00 84 1015.1
20260507031602 61 360 2.0 9.0 0.00 0.00 0.00 84 1015.1
20260507031048 61 355 1.0 8.0 0.00 0.00 0.00 84 1015.0
20260507030549 61 343 2.0 9.0 0.00 0.00 0.00 84 1015.1
20260507030101 61 323 3.0 9.0 0.00 0.00 0.00 84 1015.1
20260507025547 61 27 3.0 9.0 0.00 0.00 0.00 84 1015.1
20260507025050 61 5 3.0 10.0 0.00 0.00 0.00 84 1015.1
20260507024557 61 348 2.0 10.0 0.00 0.00 0.00 84 1014.8
20260507024050 61 35 3.0 10.0 0.00 0.00 0.00 84 1014.7
20260507023550 61 336 2.0 10.0 0.00 0.00 0.00 84 1014.7
20260507023052 61 332 2.0 10.0 0.00 0.00 0.00 84 1014.9
20260507022550 61 313 2.0 9.0 0.00 0.00 0.00 84 1014.6
20260507022051 61 340 3.0 6.0 0.00 0.00 0.00 84 1014.7
20260507021608 61 265 1.0 5.0 0.00 0.00 0.00 84 1014.6
20260507021050 61 304 2.0 5.0 0.00 0.00 0.00 84 1014.6
20260507020548 61 320 1.0 7.0 0.00 0.00 0.00 84 1014.5
20260507020109 61 0 1.0 7.0 0.00 0.00 0.00 84 1014.3
20260507015554 61 47 0.0 6.0 0.00 0.00 0.00 84 1014.1
20260507015050 61 324 2.0 7.0 0.00 0.00 0.00 84 1013.9
20260507014618 61 5 2.0 7.0 0.00 0.00 0.00 84 1014.0
20260507014050 61 322 1.0 5.0 0.00 0.00 0.00 84 1014.0
20260507013551 61 305 2.0 8.0 0.00 0.00 0.00 84 1014.0
20260507013050 61 289 2.0 11.0 0.00 0.00 0.00 83 1013.9
20260507012549 61 360 1.0 11.0 0.00 0.00 0.00 83 1013.8
20260507012050 61 310 3.0 11.0 0.00 0.00 0.00 83 1013.7
20260507011557 61 340 3.0 9.0 0.00 0.00 0.00 83 1013.7
20260507011050 62 257 3.0 9.0 0.00 0.00 0.00 83 1013.7
20260507010551 62 300 1.0 7.0 0.00 0.00 0.00 83 1013.5
20260507010052 62 298 3.0 10.0 0.00 0.00 0.00 83 1013.7
20260507005551 62 281 3.0 10.0 0.00 0.00 0.00 83 1013.6
20260507005052 62 309 2.0 9.0 0.00 0.00 0.00 83 1013.5
20260507004553 62 347 3.0 9.0 0.00 0.00 0.00 83 1013.5
20260507004050 62 295 4.0 9.0 0.00 0.00 0.00 83 1013.1
20260507003549 62 301 2.0 9.0 0.00 0.00 0.00 83 1013.3
20260507003053 62 336 3.0 10.0 0.00 0.00 0.00 82 1013.0
20260507002549 62 310 3.0 11.0 0.00 0.00 0.00 82 1013.3
20260507002048 62 277 4.0 11.0 0.00 0.00 0.00 82 1013.4
20260507001600 63 13 3.0 9.0 0.00 0.00 0.00 81 1013.1
20260507001049 63 303 2.0 11.0 0.00 0.00 0.00 81 1013.1
20260507000549 63 360 2.0 11.0 0.00 0.00 0.00 81 1013.1
20260507000111 63 337 3.0 11.0 0.00 0.00 0.00 81 1013.2
20260506235551 63 291 4.0 9.0 0.00 0.00 0.00 81 1012.9
20260506235051 63 340 3.0 14.0 0.00 0.00 0.00 81 1012.8
20260506234610 63 305 4.0 14.0 0.00 0.00 0.00 80 1012.8
20260506234051 64 34 3.0 8.0 0.00 0.00 0.00 80 1012.8
20260506233550 64 16 2.0 11.0 0.00 0.00 0.00 80 1012.8
20260506233057 64 314 3.0 11.0 0.00 0.00 0.00 80 1012.7
20260506232549 64 309 4.0 10.0 0.00 0.00 0.00 80 1012.8
20260506232050 64 355 4.0 10.0 0.00 0.00 0.00 80 1012.8
20260506231551 64 13 2.0 8.0 0.00 0.00 0.00 80 1012.4
20260506231049 64 338 3.0 10.0 0.00 0.00 0.00 80 1012.4
20260506230551 64 319 5.0 12.0 0.00 0.00 0.00 79 1012.4
20260506230101 64 102 3.0 12.0 0.00 0.00 0.00 79 1012.3
20260506225550 64 249 6.0 12.0 0.00 0.00 0.00 78 1012.4
20260506225050 65 272 5.0 12.0 0.00 0.00 0.00 78 1012.4
20260506224554 65 309 5.0 12.0 0.00 0.00 0.00 78 1012.5
20260506224050 65 15 4.0 11.0 0.00 0.00 0.00 79 1012.6
20260506223550 65 286 4.0 12.0 0.00 0.00 0.00 79 1012.6
20260506223058 64 281 5.0 12.0 0.00 0.00 0.00 80 1012.3
20260506222554 64 306 4.0 11.0 0.00 0.00 0.00 80 1012.3
20260506222050 65 305 3.0 11.0 0.00 0.00 0.00 80 1012.4
20260506221601 64 288 5.0 11.0 0.00 0.00 0.00 79 1012.4
20260506221050 65 297 3.0 13.0 0.00 0.00 0.00 79 1012.3
20260506220550 66 350 4.0 13.0 0.00 0.00 0.00 77 1012.3
20260506220053 67 311 3.0 11.0 0.00 0.00 0.00 77 1012.3
20260506215546 68 275 4.0 11.0 0.00 0.00 0.00 75 1012.3
20260506215049 69 60 3.0 13.0 0.00 0.00 0.00 74 1012.3